Location: Gairloch Mountain Observatory
(46.1383°N, 60.9640°W)
Time: 00:32:41
(UTC-04:00)

CENTAUR R/B - Visible Passes

Search period start: 22 February 2017 00:00
Search period end: 04 March 2017 00:00
Orbit: 841 x 1348 km, 63.5° (Epoch: 18 February)

Date Brightness Start Highest point End Pass type
(mag) Time Alt. Az. Time Alt. Az. Time Alt. Az.
22 Feb 5.5 19:27:58 10° WNW 19:33:33 21° WSW 19:39:20 10° SSW visible
23 Feb 4.9 18:38:52 10° NW 18:45:44 33° WSW 18:52:56 10° S visible
24 Feb 6.2 19:46:16 10° W 19:47:00 10° W 19:47:44 10° WSW visible
25 Feb 5.7 18:54:16 10° WNW 18:59:25 19° WSW 19:04:41 10° SW visible
26 Feb 5.3 18:05:00 10° NW 18:11:38 30° WSW 18:18:33 10° SSW visible
28 Feb 6.0 18:20:38 10° WNW 18:25:14 16° WSW 18:29:56 10° SW visible
02 Mar 5.8 05:38:23 10° ESE 05:39:59 11° ESE 05:41:38 10° E visible
